TRA78V EHAM-LGSA

Flight info

Callsign TRA78V
Flight time N/A
Altitude 37000
Route EDUPO Z739 MISGO DCT DOJOH DCT DODEN DCT NEGIX DCT DINKU M867 XERUM DCT BAVAX DCT RADIZ DCT NIPEL DCT ELTIB DCT GLOMY DCT PETAK DCT DIMIS DCT IPTES UL604 TRL DCT SOKRI
Aircraft B738/M-SDE2E3FGHIJ1RWXYZ/LB1

Departure

Time 2026-05-01 13:24
Airport Amsterdam Airport Schiphol (EHAM)

Arrival

Time N/A
Airport Chania International Airport (LGSA)
Time Latitude Longitude Altitude Speed Heading
2026-05-01 12:35 52.31002 4.77240 -2 ft 0 kts 183°
2026-05-01 13:17 52.31067 4.77241 -2 ft 4 kts 150°
2026-05-01 13:17 52.31075 4.77227 -2 ft 0 kts 93°
2026-05-01 13:20 52.31075 4.77228 -2 ft 0 kts 93°
2026-05-01 13:21 52.31072 4.77314 -2 ft 7 kts 93°
2026-05-01 13:21 52.31068 4.77415 -2 ft 10 kts 97°
2026-05-01 13:21 52.31035 4.77529 -2 ft 12 kts 120°
2026-05-01 13:21 52.31077 4.77627 -2 ft 13 kts
2026-05-01 13:22 52.31180 4.77636 -2 ft 16 kts
2026-05-01 13:22 52.31302 4.77647 -2 ft 19 kts
2026-05-01 13:22 52.31427 4.77648 -2 ft 17 kts 346°
2026-05-01 13:22 52.31537 4.77556 -2 ft 19 kts
2026-05-01 13:23 52.31590 4.77730 -2 ft 19 kts 86°
2026-05-01 13:23 52.31591 4.77923 -1 ft 14 kts 114°
2026-05-01 13:23 52.31498 4.77958 0 ft 20 kts 183°
2026-05-01 13:23 52.31143 4.77925 -4 ft 87 kts 183°
2026-05-01 13:24 52.30317 4.77851 2 ft 148 kts 180°
2026-05-01 13:24 52.29222 4.77771 549 ft 161 kts 181°
2026-05-01 13:24 52.28091 4.77631 1473 ft 159 kts 173°
2026-05-01 13:25 52.26101 4.79565 2694 ft 199 kts 141°
2026-05-01 13:25 52.25431 4.81621 3153 ft 220 kts 99°
2026-05-01 13:25 52.25431 4.84174 3779 ft 231 kts 92°
2026-05-01 13:25 52.25452 4.86860 4325 ft 248 kts 94°
2026-05-01 13:26 52.25408 4.89775 4830 ft 262 kts 96°
2026-05-01 13:26 52.25342 4.92783 5593 ft 268 kts 96°
2026-05-01 13:26 52.25267 4.95839 6431 ft 271 kts 97°
2026-05-01 13:26 52.25186 4.98943 7173 ft 276 kts 97°
2026-05-01 13:27 52.25100 5.02092 7973 ft 279 kts 96°
2026-05-01 13:27 52.25012 5.05260 8757 ft 281 kts 96°
2026-05-01 13:27 52.24828 5.11714 10257 ft 289 kts 96°
2026-05-01 13:28 52.24620 5.18638 10864 ft 328 kts 96°